Location: Carrizalito
(10.3833°N, 67.0217°W)
Time: 03:37:00
(UTC+00:00)

VELOX 1 - Visible Passes

Search period start: 29 March 2023 00:00
Search period end: 08 April 2023 00:00
Orbit: 618 x 633 km, 98.4° (Epoch: 28 March)

Date Brightness Start Highest point End Pass type
(mag) Time Alt. Az. Time Alt. Az. Time Alt. Az.
30 Mar ? 09:21:54 10° E 09:23:14 11° ENE 09:24:35 10° ENE visible
30 Mar ? 22:58:56 10° N 23:02:58 41° WNW 23:07:01 10° SSW visible
31 Mar ? 09:38:50 10° ESE 09:42:03 20° ENE 09:45:16 10° NNE visible
31 Mar ? 23:18:26 10° NNW 23:21:49 23° WNW 23:25:12 10° SW visible
01 Apr ? 09:56:53 10° SE 10:00:53 36° ENE 10:04:52 10° N visible
01 Apr ? 23:38:44 10° NW 23:40:36 13° WNW 23:42:28 10° W visible
04 Apr ? 09:21:13 10° E 09:21:35 10° ENE 09:21:56 10° ENE visible
04 Apr ? 22:57:09 10° N 23:01:15 45° WNW 23:05:23 10° SSW visible
05 Apr ? 09:37:18 10° ESE 09:40:19 19° ENE 09:43:19 10° NNE visible
05 Apr ? 23:16:31 10° NNW 23:20:02 25° WNW 23:23:34 10° SW visible
06 Apr ? 09:55:10 10° SE 09:59:04 33° ENE 10:02:57 10° NNE visible
06 Apr ? 23:36:31 10° NW 23:38:45 14° WNW 23:41:00 10° WSW visible
